Daviess Cnty AP, Washington,, IN

3:40 AM EST on December 15, 2019 (GMT -0500)
Daviess County

Weather History for KDCY - October, 2019

Change the Weather History Date:

Saturday, October 19, 2019

  Actual Average (WUND) Record (WUND)
Temperature  
Mean Temperature 53 °F -  
Max Temperature 71 °F - - (-1)
Min Temperature 35 °F - - (-1)
Degree Days  
Heating Degree Days 12    
Growing Degree Days 3 (Base 50)    
Moisture  
Dew Point 42 °F    
Average Humidity 73    
Maximum Humidity 100    
Minimum Humidity 37    
Precipitation  
Precipitation 0.00 in - - ()
Sea Level Pressure  
Sea Level Pressure 29.86 in    
Wind  
Wind Speed 2 mph (South)    
Max Wind Speed 12 mph    
Max Gust Speed 16 mph    
Visibility 10 miles    
Events      
Averages and records for this station are not official NWS values.
T = Trace of Precipitation, MM = Missing Value Source: NWS Daily Summary

Daily Weather History Graph

Daily Weather History Graph

Search for Another Location

Airport or City:

Astronomy

Oct. 19, 2019 Rise Set
Actual Time 8:01 AM EDT 7:04 PM EDT
Civil Twilight 7:34 AM EDT 7:31 PM EDT
Nautical Twilight 7:03 AM EDT 8:02 PM EDT
Astronomical Twilight 6:32 AM EDT 8:33 PM EDT
Moon 11:16 PM EDT (10/19) 1:30 PM EDT (10/19)
Length of Visible Light 11h 57m
Length of Day
11h 03m
Waning Gibbous, 70% of the Moon is Illuminated
Oct 19
Waning Gibbous
Oct 21
Last Quarter
Oct 27
New
Nov 4
First Quarter
Nov 12
Full

Hourly Weather History & Observations

Time (EDT) Temp. Windchill Dew Point Humidity Pressure Visibility Wind Dir Wind Speed Gust Speed Precip Events Conditions
12:10 AM 43.3 °F - 38.1 °F 82% 29.94 in 10.0 mi Calm Calm - N/A   Clear
12:35 AM 42.3 °F - 38.5 °F 86% 29.94 in 10.0 mi Calm Calm - N/A   Clear
12:55 AM 42.8 °F - 38.7 °F 85% 29.93 in 10.0 mi Calm Calm - N/A   Clear
1:15 AM 41.4 °F - 37.6 °F 86% 29.92 in 10.0 mi Calm Calm - N/A   Clear
1:35 AM 38.3 °F 35.9 °F 36.1 °F 92% 29.91 in 10.0 mi SE 3.5 mph - N/A   Clear
2:15 AM 42.3 °F - 39.9 °F 91% 29.92 in 10.0 mi Calm Calm - N/A   Clear
2:30 AM 38.8 °F - 37.4 °F 95% 29.92 in 10.0 mi Calm Calm - N/A   Clear
2:55 AM 40.3 °F - 37.9 °F 91% 29.92 in 10.0 mi Calm Calm - N/A   Clear
3:10 AM 37.6 °F - 36.3 °F 95% 29.92 in 10.0 mi Calm Calm - N/A   Clear
3:35 AM 37.2 °F - 36.9 °F 99% 29.92 in 10.0 mi Calm Calm - N/A   Clear
3:50 AM 39.2 °F - 39.0 °F 99% 29.92 in 10.0 mi Calm Calm - N/A   Clear
4:15 AM 35.8 °F - 35.6 °F 99% 29.92 in 10.0 mi Calm Calm - N/A   Clear
4:35 AM 36.9 °F - 36.7 °F 99% 29.92 in 10.0 mi Calm Calm - N/A   Clear
4:55 AM 36.5 °F - 35.8 °F 97% 29.92 in 10.0 mi Calm Calm - N/A   Clear
5:15 AM 39.2 °F - 39.0 °F 99% 29.92 in 10.0 mi Calm Calm - N/A   Clear
5:35 AM 36.1 °F - 36.0 °F 99% 29.91 in 10.0 mi Calm Calm - N/A   Clear
5:55 AM 36.7 °F - 36.3 °F 99% 29.92 in 10.0 mi Calm Calm - N/A   Clear
6:15 AM 37.6 °F - 37.2 °F 99% 29.92 in 10.0 mi Calm Calm - N/A   Clear
6:35 AM 36.9 °F - 36.5 °F 99% 29.92 in 10.0 mi Calm Calm - N/A   Clear
6:55 AM 36.9 °F 34.3 °F 36.3 °F 98% 29.92 in 10.0 mi SSE 3.5 mph - N/A   Clear
7:15 AM 36.5 °F 33.9 °F 36.5 °F 100% 29.91 in 10.0 mi SSE 3.5 mph - N/A   Clear
7:35 AM 35.4 °F - 35.2 °F 99% 29.91 in 10.0 mi Calm Calm - N/A   Clear
7:55 AM 36.5 °F - 36.5 °F 100% 29.91 in 10.0 mi Calm Calm - N/A   Clear
8:15 AM 36.3 °F - 36.1 °F 99% 29.92 in 10.0 mi Calm Calm - N/A   Clear
8:35 AM 36.5 °F - 36.5 °F 100% 29.92 in 10.0 mi Calm Calm - N/A   Clear
8:55 AM 37.4 °F - 37.2 °F 99% 29.92 in 10.0 mi Calm Calm - N/A   Clear
9:15 AM 37.8 °F 35.3 °F 37.6 °F 99% 29.91 in 10.0 mi SE 3.5 mph - N/A   Clear
9:35 AM 40.6 °F - 40.5 °F 99% 29.92 in 10.0 mi Calm Calm - N/A   Clear
9:55 AM 42.8 °F - 41.4 °F 95% 29.92 in 10.0 mi Calm Calm - N/A   Clear
10:15 AM 45.1 °F - 43.5 °F 94% 29.92 in 10.0 mi Calm Calm - N/A   Clear
10:35 AM 50.5 °F - 44.2 °F 79% 29.92 in 10.0 mi SE 5.8 mph - N/A   Clear
10:55 AM 55.0 °F - 44.8 °F 68% 29.91 in 10.0 mi SSE 8.1 mph - N/A   Clear
11:10 AM 57.0 °F - 43.5 °F 61% 29.91 in 10.0 mi South 9.2 mph - N/A   Clear
11:35 AM 59.9 °F - 43.7 °F 55% 29.91 in 10.0 mi South 8.1 mph - N/A   Clear
11:55 AM 61.9 °F - 43.7 °F 51% 29.91 in 10.0 mi South 10.4 mph - N/A   Clear
12:15 PM 63.9 °F - 44.2 °F 49% 29.90 in 10.0 mi South 6.9 mph - N/A   Clear
12:35 PM 65.3 °F - 43.9 °F 46% 29.90 in 10.0 mi South 8.1 mph - N/A   Clear
12:55 PM 66.4 °F - 44.1 °F 44% 29.89 in 10.0 mi South 10.4 mph - N/A   Clear
1:15 PM 67.5 °F - 44.1 °F 43% 29.87 in 10.0 mi South 10.4 mph - N/A   Clear
1:35 PM 68.0 °F - 43.9 °F 42% 29.86 in 10.0 mi SSE 8.1 mph - N/A   Clear
2:15 PM 69.1 °F - 42.4 °F 38% 29.83 in 10.0 mi SSE 11.5 mph 16.1 mph N/A   Clear
2:35 PM 70.0 °F - 42.4 °F 37% 29.82 in 10.0 mi SSE 10.4 mph - N/A   Clear
2:55 PM 70.3 °F - 43.0 °F 37% 29.81 in 10.0 mi South 5.8 mph - N/A   Clear
3:15 PM 69.6 °F - 43.2 °F 38% 29.80 in 10.0 mi South 4.6 mph - N/A   Clear
3:50 PM 71.1 °F - 44.1 °F 38% 29.79 in 10.0 mi South 8.1 mph - N/A   Clear
4:15 PM 71.1 °F - 43.7 °F 37% 29.79 in 10.0 mi South 6.9 mph 10.4 mph N/A   Clear
4:35 PM 71.6 °F - 44.2 °F 37% 29.78 in 10.0 mi South 9.2 mph - N/A   Clear
4:55 PM 70.5 °F - 43.9 °F 38% 29.77 in 10.0 mi South 8.1 mph - N/A   Clear
5:10 PM 70.3 °F - 44.2 °F 39% 29.77 in 10.0 mi South 8.1 mph - N/A   Clear
5:35 PM 71.4 °F - 44.8 °F 38% 29.77 in 10.0 mi South 10.4 mph - N/A   Clear
5:55 PM 70.9 °F - 45.3 °F 40% 29.76 in 10.0 mi South 10.4 mph - N/A   Clear
6:15 PM 69.1 °F - 45.5 °F 43% 29.76 in 10.0 mi South 5.8 mph - N/A   Clear
6:35 PM 67.5 °F - 46.4 °F 47% 29.76 in 10.0 mi South 4.6 mph - N/A   Clear
6:55 PM 65.8 °F - 46.8 °F 50% 29.76 in 10.0 mi SSE 4.6 mph - N/A   Clear
7:15 PM 64.4 °F - 46.9 °F 53% 29.76 in 10.0 mi Calm Calm - N/A   Clear
7:30 PM 62.8 °F - 47.8 °F 58% 29.77 in 10.0 mi Calm Calm - N/A   Clear
8:15 PM 57.9 °F - 48.2 °F 70% 29.77 in 10.0 mi Calm Calm - N/A   Scattered Clouds
8:35 PM 57.9 °F - 48.9 °F 72% 29.78 in 10.0 mi Calm Calm - N/A   Clear
8:50 PM 55.6 °F - 47.5 °F 74% 29.77 in 10.0 mi Calm Calm - N/A   Clear
9:10 PM 54.3 °F - 47.3 °F 77% 29.77 in 10.0 mi Calm Calm - N/A   Clear
9:30 PM 54.3 °F - 48.2 °F 80% 29.78 in 10.0 mi Calm Calm - N/A   Mostly Cloudy
9:55 PM 54.0 °F - 47.7 °F 79% 29.78 in 10.0 mi SSE 4.6 mph - N/A   Overcast
10:15 PM 54.9 °F - 48.2 °F 78% 29.78 in 10.0 mi SSE 3.5 mph - N/A   Scattered Clouds
10:35 PM 54.9 °F - 48.6 °F 79% 29.79 in 10.0 mi South 6.9 mph - N/A   Clear
10:55 PM 60.8 °F - 51.8 °F 72% 29.80 in 10.0 mi SSW 9.2 mph - N/A   Mostly Cloudy
11:15 PM 61.3 °F - 52.0 °F 71% 29.80 in 10.0 mi SSW 9.2 mph - N/A   Mostly Cloudy
11:35 PM 61.0 °F - 52.7 °F 74% 29.80 in 10.0 mi SSW 10.4 mph - N/A   Mostly Cloudy
11:50 PM 61.0 °F - 53.2 °F 76% 29.80 in 10.0 mi SSW 9.2 mph - N/A   Mostly Cloudy